OSCAR 7 (AO-7) 1 07530U 74089B 25347.28281122 -.00000025 00000+0 13572-3 0 9998 2 07530 101.9967 353.5562 0012373 125.6199 246.4821 12.53694166337225 PHASE 3B (AO-10) 1 14129U 83058B 25346.88451867 .00000225 00000+0 00000+0 0 9995 2 14129 26.0564 251.1585 6064985 63.6701 345.2960 2.05870730291654 UOSAT 2 (UO-11) 1 14781U 84021B 25346.86053170 .00002939 00000+0 30918-3 0 9992 2 14781 97.7811 309.8871 0009320 81.9065 278.3210 14.90143516229375 LUSAT (LO-19) 1 20442U 90005G 25346.96495255 .00000253 00000+0 10736-3 0 9990 2 20442 98.8962 358.5372 0012161 36.6836 323.5178 14.34044751875701 EYESAT A (AO-27) 1 22825U 93061C 25347.13848659 .00000208 00000+0 96190-4 0 9991 2 22825 98.7146 49.4067 0007339 288.4127 71.6257 14.30876971680390 ITAMSAT (IO-26) 1 22826U 93061D 25347.17297011 .00000232 00000+0 10469-3 0 9997 2 22826 98.7095 49.3405 0007821 269.6201 90.4086 14.31297863680701 RADIO ROSTO (RS-15) 1 23439U 94085A 25347.22365338 .00000053 00000+0 27105-2 0 9994 2 23439 64.8156 243.9682 0149692 38.4178 322.7294 11.27583379274939 JAS-2 (FO-29) 1 24278U 96046B 25347.21661268 -.00000019 00000+0 17814-4 0 9996 2 24278 98.5462 216.2882 0349177 218.7362 138.8267 13.53262928448011 TECHSAT 1B (GO-32) 1 25397U 98043D 25347.19849032 .00000163 00000+0 90488-4 0 9999 2 25397 98.9920 330.4211 0002039 56.6374 303.4999 14.24377217424852 ISS (ZARYA) 1 25544U 98067A 25347.12152100 .00016130 00000+0 29450-3 0 9996 2 25544 51.6303 140.5889 0003238 241.9684 118.0978 15.49559837542916 PCSAT (NO-44) 1 26931U 01043C 25347.29500365 .00000319 00000+0 14988-3 0 9995 2 26931 67.0515 5.0428 0007437 270.0847 89.9403 14.31855372263839 SAUDISAT 1C (SO-50) 1 27607U 02058C 25347.27770704 .00003444 00000+0 42779-3 0 9998 2 27607 64.5547 343.9363 0072247 296.5023 62.8686 14.82395165236893 CUTE-1 (CO-55) 1 27844U 03031E 25347.29256032 .00000603 00000+0 28053-3 0 9991 2 27844 98.6766 353.1884 0009762 11.8884 348.2523 14.24180071165215 CUBESAT XI-IV (CO-57) 1 27848U 03031J 25346.97818520 .00000480 00000+0 23011-3 0 9997 2 27848 98.6792 352.7398 0009978 30.1158 330.0593 14.23487467164886 MOZHAETS 4 (RS-22) 1 27939U 03042A 25347.33250094 .00002041 00000+0 32592-3 0 9996 2 27939 98.3369 161.5481 0012142 134.0839 345.5798 14.72973089188181 CUBESAT XI-V 1 28895U 05043F 25346.91750934 .00003111 00000+0 50413-3 0 9993 2 28895 98.2721 133.9982 0015361 77.6955 282.5970 14.71901702 74346 CUTE-1.7+APD II (CO-65) 1 32785U 08021C 25347.23630819 .00009626 00000+0 64541-3 0 9994 2 32785 97.8080 320.3320 0007883 308.8312 51.2211 15.07055433957166 SEEDS II (CO-66) 1 32791U 08021J 25347.23157210 .00029156 00000+0 11581-2 0 9995 2 32791 97.7445 332.3938 0001380 203.4259 156.6916 15.25283576958873 YUBILEINY (RS-30) 1 32953U 08025A 25347.35441089 .00000120 00000+0 78901-3 0 9992 2 32953 82.5020 111.0406 0018990 359.7462 0.3605 12.43172384796604 KKS-1 (KISEKI) 1 33499U 09002H 25347.21455113 .00002970 00000+0 37709-3 0 9998 2 33499 98.1172 261.8176 0008145 162.8065 197.3425 14.82437662908635 SWISSCUBE 1 35932U 09051B 25347.24995793 .00002456 00000+0 49992-3 0 9998 2 35932 98.4141 246.8395 0008105 73.0680 287.1408 14.61961610861983 BEESAT-1 1 35933U 09051C 25347.30402499 .00001906 00000+0 39607-3 0 9993 2 35933 98.4075 246.9049 0006536 84.6626 275.5319 14.61280884862037 ITUPSAT1 1 35935U 09051E 25347.27110978 .00001749 00000+0 37420-3 0 9995 2 35935 98.4167 246.2499 0008719 93.5759 266.6438 14.60035792861604 XIWANG-1 (HOPE-1) 1 36122U 09072B 25347.27363697 -.00000111 00000+0 -17454-3 0 9994 2 36122 100.3775 299.3027 0007078 301.8802 58.1622 13.16432745768545 O/OREOS (USA 219) 1 37224U 10062C 25346.89462906 .00004736 00000+0 46402-3 0 9999 2 37224 71.9700 142.0106 0013101 56.6978 303.5444 14.92676869 88833 JUGNU 1 37839U 11058B 25347.32511823 .00000602 00000+0 17441-3 0 9998 2 37839 19.9625 357.5450 0018581 183.0407 290.1575 14.13697342732695 SRMSAT 1 37841U 11058D 25347.03845596 .00000506 00000+0 13117-3 0 9995 2 37841 19.9710 106.1426 0011767 316.7615 198.8861 14.11511594731489 STRAND-1 1 39090U 13009E 25347.01775320 .00000578 00000+0 20914-3 0 9998 2 39090 98.3822 166.9021 0009720 70.0903 290.1330 14.37005371670324 ZACUBE-1 (TSHEPISOSAT) 1 39417U 13066B 25346.85863495 .00007005 00000+0 57114-3 0 9990 2 39417 97.8066 303.4041 0041919 146.5952 213.7929 14.99088052652791 GOMX-1 1 39430U 13066Q 25347.31049928 .00004007 00000+0 61478-3 0 9991 2 39430 97.6591 194.4002 0129719 314.7439 44.3266 14.68589876642625 CUBEBUG-2 (LO-74) 1 39440U 13066AA 25347.27569864 .00008878 00000+0 85360-3 0 9999 2 39440 97.8705 290.9464 0057894 284.0381 75.4406 14.91983936649256 FUNCUBE-1 (AO-73) 1 39444U 13066AE 25347.18657820 .00013351 00000+0 90343-3 0 9992 2 39444 97.8061 310.4702 0040439 114.3912 246.1543 15.05967941651638 UWE-3 1 39446U 13066AG 25347.08916887 .00007809 00000+0 70022-3 0 9997 2 39446 97.8476 297.4393 0049485 218.0412 141.7310 14.95107769649751 UNISAT-6 1 40012U 14033C 25347.15018437 .00005064 00000+0 56362-3 0 9997 2 40012 97.7613 138.5971 0045577 322.7176 37.0878 14.86805415618507 DUCHIFAT-1 1 40021U 14033M 25347.03531929 .00049389 00000+0 12066-2 0 9990 2 40021 98.0793 18.8803 0007426 34.0451 326.1268 15.40648601626893 QB50P1 1 40025U 14033R 25346.95020145 .00013616 00000+0 74266-3 0 9992 2 40025 98.0971 340.5587 0010473 134.3992 225.8098 15.14458664624803 LILACSAT-2 1 40908U 15049K 25347.31921479 .00023914 00000+0 51215-3 0 9992 2 40908 97.4918 12.7189 0007273 194.6897 165.4141 15.44750260566993 FOX-1A (AO-85) 1 40967U 15058D 25347.14424235 .00007044 00000+0 63299-3 0 9997 2 40967 64.7746 136.5932 0134840 129.8451 231.4617 14.89664787 85840 CAS-2T & KS-1Q 1 41847U 16066G 25347.17733538 .00001640 00000+0 24091-3 0 9990 2 41847 98.4036 59.9132 0343221 333.8322 24.5867 14.44132203477941 RADFXSAT (FOX-1B) 1 43017U 17073E 25347.17528841 .00015704 00000+0 74128-3 0 9991 2 43017 97.4957 213.3614 0159532 248.9711 109.4391 15.08878008437304 DIWATA-2B 1 43678U 18084H 25347.31940057 .00004314 00000+0 35701-3 0 9999 2 43678 98.1028 170.8052 0007586 45.1198 315.0639 14.99439973388357 ES'HAIL 2 1 43700U 18090A 25347.13750125 .00000158 00000+0 00000+0 0 9999 2 43700 0.0019 6.6530 0000983 263.5377 247.2147 1.00268864 25817 FOX-1CLIFF (AO-95) 1 43770U 18099N 25347.12166828 .00017695 00000+0 77862-3 0 9993 2 43770 97.4680 43.4011 0008269 284.6402 75.3917 15.21893793384871 ITASAT 1 43786U 18099AE 25347.09395939 .00011917 00000+0 62094-3 0 9995 2 43786 97.4329 37.3977 0012006 282.4035 77.5854 15.16079060384683 JY1SAT (JO-97) 1 43803U 18099AX 25347.14331003 .00023711 00000+0 89896-3 0 9997 2 43803 97.4424 44.9581 0005874 200.2714 159.8293 15.26862006385178 UWE-4 1 43880U 18111E 25347.02465135 .00034841 00000+0 10431-2 0 9992 2 43880 97.5857 263.5568 0007286 276.5205 83.5208 15.34424788382129 TIANYAN 01 1 44881U 19093C 25347.30649950 .00002508 00000+0 29195-3 0 9997 2 44881 97.7756 58.9251 0013214 344.8165 15.2652 14.86109025323803 RS-44 & BREEZE-KM R/B 1 44909U 19096E 25347.32680157 .00000027 00000+0 66161-4 0 9996 2 44909 82.5210 103.2185 0217059 218.7161 139.8214 12.79746065278570 SALSAT 1 46495U 20068K 25347.25281358 .00015093 00000+0 58284-3 0 9996 2 46495 97.8788 334.5529 0008943 227.1555 132.8932 15.26340068286963 XW-3 (CAS-9) 1 50466U 21131B 25347.27499973 .00001287 00000+0 41331-3 0 9992 2 50466 98.5048 75.6932 0003163 304.9829 55.1062 14.41114831208330 GREENCUBE (IO-117) 1 53109U 22080E 25347.04311871 -.00000003 00000+0 00000+0 0 9998 2 53109 70.1576 2.9754 0009015 327.4898 32.5206 6.42583237 80106 STRATOSAT-TK 1 (RS52S) 1 57167U 23091B 25347.23579568 .00216459 00000+0 12902-2 0 9999 2 57167 97.5189 59.7259 0004643 321.1584 38.9348 15.77306042136959 UMKA 1 (RS40S) 1 57172U 23091G 25347.26949853 .00010798 00000+0 52982-3 0 9997 2 57172 97.5345 41.7314 0014697 51.6823 308.5730 15.18183621135774 CUBESX-HSE 3 (RS42S) 1 57178U 23091N 25347.33594462 .00021697 00000+0 84802-3 0 9999 2 57178 97.5376 46.0286 0012795 34.5282 325.6784 15.25808126136037 MONITOR-3 (RS58S) 1 57180U 23091Q 25347.33745260 .00017311 00000+0 72699-3 0 9995 2 57180 97.5370 44.7280 0013706 38.7871 321.4347 15.23430636135950 MONITOR-4 (RS57S) 1 57182U 23091S 25347.26119949 .00018829 00000+0 78873-3 0 9993 2 57182 97.5365 44.6125 0013742 39.3536 320.8697 15.23499254135949 MONITOR-2 (RS39S) 1 57184U 23091U 25347.34794882 .00009046 00000+0 46346-3 0 9990 2 57184 97.5372 41.8162 0012818 44.4401 315.7858 15.16744216135765 SVYATOBOR 1 (RS60S) 1 57187U 23091X 25347.34696693 .00015380 00000+0 65910-3 0 9990 2 57187 97.5377 45.3601 0010935 32.2818 327.9085 15.22803701135999 VIZARD-METEO (RS38S) 1 57189U 23091Z 25347.29487331 .00024938 00000+0 87481-3 0 9999 2 57189 97.5367 48.7043 0008724 21.3349 338.8253 15.29390468136210 NANOZOND 1 (RS49S) 1 57190U 23091AA 25347.32659753 .00100257 00000+0 15717-2 0 9995 2 57190 97.5286 57.2223 0004468 358.5227 1.6012 15.53343700136793 POLYTECH-UNIVERSE 3 (R*) 1 57191U 23091AB 25347.33192725 .00008902 00000+0 45316-3 0 9991 2 57191 97.5343 41.3138 0017583 58.5712 301.7237 15.16909091135753 UTMN 2 (RS27S) 1 57203U 23091AP 25347.33028704 .00021129 00000+0 80376-3 0 9991 2 57203 97.5368 47.4232 0009553 24.6715 335.4979 15.26749642136136 KUZGTU 1 (RS47S) 1 57217U 23091AV 25347.31978112 .00020359 00000+0 81795-3 0 9991 2 57217 97.5352 45.2950 0013027 37.2193 322.9945 15.24897167136002 SONATE-2 1 59112U 24043Q 25347.30061801 .00042666 00000+0 89837-3 0 9992 2 59112 97.5319 123.5721 0009036 159.4391 200.7222 15.45115317 99067 MESAT1 1 60209U 24125G 25347.30619734 .00050144 00000+0 10104-2 0 9996 2 60209 97.2528 197.6782 0014190 175.6478 184.4898 15.46300021 80692 OOV-CUBE (TUBSAT-30) 1 60240U 24128F 25346.81342213 .00005090 00000+0 39224-3 0 9999 2 60240 61.9941 154.9269 0058467 94.2646 266.5129 15.01608814 78113 COLIBRI-S (RS67S) 1 61746U 24199M 25347.27351571 .00030142 00000+0 77180-3 0 9996 2 61746 97.3263 215.2058 0008419 229.0248 131.0271 15.39314944108735 HORS 3 (RS81S) 1 61753U 24199U 25347.33248074 .00039749 00000+0 91059-3 0 9997 2 61753 97.3232 215.8753 0006363 234.0702 125.9956 15.42646371108798 HORS 4 (RS82S) 1 61754U 24199V 25347.33167313 .00046611 00000+0 10052-2 0 9993 2 61754 97.3214 216.3029 0006427 232.2248 127.8419 15.44408837108821 HORIZON (RS59S) 1 61757U 24199Y 25347.32537689 .00088369 00000+0 13660-2 0 9996 2 61757 97.3219 218.4012 0005636 206.7965 153.2998 15.53771486108959 ARCTICSAT 1 (RS74S) 1 61762U 24199AD 25347.32206352 .00079133 00000+0 12930-2 0 9990 2 61762 97.3228 218.2497 0005879 202.7779 157.3214 15.52261180108947 SIT-2086 1 61764U 24199AF 25347.27104537 .00039852 00000+0 91105-3 0 9994 2 61764 97.3231 216.5670 0006298 224.1785 135.8960 15.42708885105671 MORDOVIA-IOT (RS50S) 1 61765U 24199AG 25347.28612353 .00218232 00000+0 17999-2 0 9995 2 61765 97.3128 220.9211 0003890 166.1730 193.9639 15.69669627105977 RUZAEVKA 390 (RS44S) 1 61766U 24199AH 25347.32716438 .00136798 00000+0 15504-2 0 9996 2 61766 97.3175 219.9623 0004058 184.2783 175.8441 15.61930350105911 HYPERVIEW 1G (RS66S) 1 61772U 24199AP 25347.32461347 .00062311 00000+0 11885-2 0 9996 2 61772 97.3214 216.7664 0007973 234.1318 125.9193 15.47915886105708 ALTAIR (RS65S) 1 61779U 24199AW 25347.32765417 .00016285 00000+0 51480-3 0 9993 2 61779 97.3264 213.1130 0012297 251.8072 108.1831 15.32801993108608 ASRTU-1 (AO-123) 1 61781U 24199AY 25347.32582396 .00017221 00000+0 55839-3 0 9992 2 61781 97.3253 212.7692 0012824 253.2249 106.7586 15.31970231105435 TUSUR GO (RS78S) 1 61782U 24199AZ 25347.32625039 .00094072 00000+0 14883-2 0 9997 2 61782 97.3179 217.4927 0006679 229.3184 130.7490 15.53100018105757 SAMSAT-IONOSPHERE (RS7*) 1 61784U 24199BB 25347.26715199 .00045791 00000+0 10347-2 0 9994 2 61784 97.3227 215.5182 0009751 241.2257 118.8012 15.42996090108765 RTU MIREA 1 (RS51S) 1 61785U 24199BC 25347.28383395 .00048552 00000+0 10550-2 0 9990 2 61785 97.3225 215.7898 0009375 238.5853 121.4479 15.44152986105633 HADES-R 1 62690U 25009CK 25347.21619672 .00252155 00000+0 31227-2 0 9990 2 62690 97.3868 69.8539 0001040 257.6170 102.4970 15.59223072 50856 TEVEL2-4 1 63213U 25052D 25347.24036976 .00030013 00000+0 11279-2 0 9995 2 63213 97.4103 239.0653 0005103 62.7439 297.4320 15.27108188 41664 TEVEL2-5 1 63214U 25052E 25347.24585434 .00029703 00000+0 11189-2 0 9998 2 63214 97.4102 239.0585 0005007 63.5171 296.6581 15.27032417 41664 TEVEL2-6 1 63215U 25052F 25347.25317621 .00029724 00000+0 11213-2 0 9992 2 63215 97.4104 239.0541 0005118 62.9743 297.2018 15.26984118 41665 TEVEL2-1 1 63217U 25052H 25347.23041720 .00028367 00000+0 10810-2 0 9990 2 63217 97.4082 238.8422 0005372 71.5172 288.6650 15.26655504 41650 TEVEL2-3 1 63218U 25052J 25347.22961214 .00028123 00000+0 10711-2 0 9999 2 63218 97.4083 238.8472 0005476 70.3621 289.8208 15.26677606 41657 TEVEL2-2 1 63219U 25052K 25347.16564159 .00024794 00000+0 94580-3 0 9997 2 63219 97.4081 238.7782 0005426 71.4913 288.6915 15.26650400 41644 TEVEL2-9 1 63237U 25052AD 25347.19471200 .00024422 00000+0 97377-3 0 9999 2 63237 97.4137 238.5129 0009199 81.0492 279.1787 15.25151922 41612 TEVEL2-7 1 63238U 25052AE 25347.20866746 .00025519 00000+0 10217-2 0 9990 2 63238 97.4144 238.5009 0009406 81.0079 279.2223 15.25002114 41614 TEVEL2-8 1 63239U 25052AF 25347.27992969 .00026608 00000+0 10657-2 0 9993 2 63239 97.4140 238.5562 0009432 81.0556 279.1749 15.24981442 41626 HADES-ICM 1 63492U 25052BN 25347.21668512 .00101456 00000+0 25478-2 0 9994 2 63492 97.4085 240.7340 0011533 73.8432 286.4083 15.39538976 41775 INNOSAT 16 (RS92S7) 1 64878U 25155C 25347.27713139 .00006725 00000+0 29036-3 0 9997 2 64878 97.4331 310.6437 0012874 115.5234 244.7336 15.22763086 52353 GEOSCAN 6 (RS92S6) 1 64879U 25155D 25347.26573610 .00018352 00000+0 72420-3 0 9999 2 64879 97.4333 310.9824 0010538 109.3430 250.8948 15.25545527 52373 GEOSCAN 1 (RS92S1) 1 64880U 25155E 25347.18980222 .00018859 00000+0 73829-3 0 9999 2 64880 97.4335 310.9367 0010476 110.0546 250.1821 15.25807438 52361 239ALFEROV (RS61S) 1 64881U 25155F 25347.28210974 .00024125 00000+0 91846-3 0 9993 2 64881 97.4343 311.1391 0010327 109.6538 250.5816 15.26686090 52381 GEOSCAN 2 (RS92S2) 1 64890U 25155Q 25347.28544614 .00019104 00000+0 74046-3 0 9998 2 64890 97.4332 311.1029 0009946 99.0307 261.2058 15.26142534 52385 GEOSCAN 5 (RS92S5) 1 64891U 25155R 25347.24636128 .00024318 00000+0 91620-3 0 9997 2 64891 97.4337 311.1647 0008951 113.8420 246.3758 15.27042399 52383 GEOSCAN 4 (RS92S4) 1 64892U 25155S 25347.24342940 .00023809 00000+0 89525-3 0 9999 2 64892 97.4340 311.1721 0008988 114.2644 245.9535 15.27111915 52383 GEOSCAN 3 (RS92S3) 1 64893U 25155T 25347.27855124 .00027774 00000+0 10202-2 0 9996 2 64893 97.4334 311.2720 0008772 115.5892 244.6255 15.27855353 52394 INNOSAT 3 (RS92S0) 1 64894U 25155U 25347.19015430 .00042450 00000+0 14412-2 0 9991 2 64894 97.4319 311.3785 0008635 115.1276 245.0861 15.30339855 52396